Find Starlink 3529

NORAD ID: 51724 Int'l Des: 2022-016 Owner: SPXS Country: US Constellation: starlink operational
LEOCIRCULAR

当前视图

正在加载3D地球...

About Starlink 3529

Starlink 3529 (NORAD 51724) is a starlink constellation satellite (v1.5) launched Feb 21, 2022 by SPXS of US. It operates in LEO, CIRCULAR orbit with a mass of 297.00 kg.

关于 Starlink 3529

正在加载描述...

即将过境

Passes for default location (London). Set your location on the main map for personalized predictions.

高度历史

Loading altitude history...

两行轨道根数

1 51724U 22016L 26168.72891470 .00000181 00000-0 29456-4 0 9991
2 51724 53.1587 239.9266 0001022 84.9240 275.1868 15.08831813238524
Epoch: Jun 17, 2026 • Age: 11 hours

当前状态

高度 544.6 km
速度 7.59 km/s
星下点 -16.88°S, 109.58°W
发射日期 Feb 21, 2022
运行时间 4.3 years
类型 internet

技术详情

分类 Payload
质量 297.00 kg
干质量 275.00 kg
总质量 297.00 kg
长度 0.20 m
直径 2.80 m
跨度 9.00 m
形状 Box + pan
制造商 SPXS
平台类型 Starlink
阶段状态 In Orbit
所有者/国家 SPXS/US

Most Searched